Regional Weather Roundup
Issued by NWS Albany, NY

Home | Current Version | Previous Version | Text Only | Print | Product List | Glossary Off
Versions: 1 2 3 4 5 6 7 8 9 10 11 12 13 14 15 16 17 18 19 20 21 22 23 24 25 26 27 28 29 30 31 32 33 34 35 36 37 38 39 40 41 42 43 44 45 46 47 48 49 50

000
ASUS41 KALY 280410
RWRALY

NEW YORK STATE HOURLY WEATHER ROUNDUP
NATIONAL WEATHER SERVICE ALBANY NY
1200 AM EDT TUE JUL 28 2015

NOTE: "FAIR" INDICATES FEW OR NO CLOUDS BELOW 12,000 FEET WITH NO
SIGNIFICANT WEATHER AND/OR NO OBSTRUCTIONS TO VISIBILITY.

NYZ032-033-038>043-046>054-057>066-NYZ062>081-280500-
EAST


CITY           SKY/WX    TMP DP  RH WIND       PRES   REMARKS
ALBANY         PTCLDY    76  68  76 S7        29.99R
GLENS FALLS    CLEAR     68  65  90 CALM      29.98S
POUGHKEEPSIE   CLEAR     72  68  87 CALM      30.00S
NEWBURGH       CLEAR     68  68 100 CALM      30.03S
MONTGOMERY     CLEAR     68  66  93 CALM      30.02S
WHITE PLAINS   CLEAR     73  69  87 S3        30.02F
ISLIP          PTCLDY    74  69  85 SW7       30.01S
NEW YORK CITY  MOCLDY    78  67  68 SW6       30.01S
CENTRAL PARK   PTCLDY    78  67  68 VRB6      30.05R
$$

NYZ005>009-017-018-044>046-055-056-280500-
CENTRAL


CITY           SKY/WX    TMP DP  RH WIND       PRES   REMARKS
FULTON         CLEAR     63  61  93 CALM      30.00R
SYRACUSE       PTCLDY    72  67  84 CALM      30.00S
ROME           CLEAR     65  61  87 CALM      30.02S
ELMIRA         CLEAR     62  61  96 W3        30.04S
BINGHAMTON     CLEAR     72  62  71 CALM      30.06S
MONTICELLO     CLEAR     66  64  94 CALM      30.07R
$$

NYZ026>034-041>043-280500-
NORTH


CITY           SKY/WX    TMP DP  RH WIND       PRES   REMARKS
WATERTOWN      CLEAR     65  59  81 CALM      29.99R
FORT DRUM      NOT AVBL
MASSENA        PTCLDY    70  63  78 SW3       29.96S
SARANAC LAKE   CLEAR     62  61  96 CALM      30.02S
PLATTSBURGH    PTCLDY    69  67  93 CALM      29.96S
$$

NYZ001>004-010>016-019>021-280500-
WEST


CITY           SKY/WX    TMP DP  RH WIND       PRES   REMARKS
NIAGARA FALLS  PTCLDY    72  62  71 W6        30.01R
BUFFALO        PTCLDY    74  64  71 S5        30.03R
DUNKIRK        CLEAR     65  62  90 S3        30.04R
JAMESTOWN      CLEAR     70  57  64 CALM      30.11R
WELLSVILLE     CLEAR     66  61  84 CALM      30.13R
ROCHESTER      CLEAR     70  65  84 SW3       30.02R
PENN YAN       CLEAR     69  65  86 SW5       30.04S
$$

             KEY
       WCI = WIND CHILL INDEX
       VSB = VISIBILITY
       HX  = HEAT INDEX
$$


USA.gov is the U.S. government's official web portal to all federal, state and local government web resources and services.